Home > Weather > Reinach > Past weeks

Flag for Switzerland Weather for the Past 2 Weeks in Reinach, Basel-Land, Switzerland

Now
50 °F

Passing clouds.


Feels Like: 50 °F
Forecast: 32 / 58 °F
Wind: 2 mph from North

Location: Bale-Mulhouse

Current Time: Apr 29, 2016 at 10:39:30 AM

Latest Report: Apr 29, 2016 at 10:00 AM


Visibility: N/A

Pressure: 30.09 "Hg

Humidity: 54%

Dew Point: 34 °F

Location of ReinachLocation

Historic Weather in Reinach — Graph

°F

Reinach Temperature Yesterday

Maximum temperature yesterday: 54 °F (at 3:30 PM)
Minimum temperature yesterday: 30 °F (at 5:30 AM)
Average temperature yesterday: 43 °F

High & Low Weather Summary for the Past Weeks

 TemperatureHumidityPressure
High70 °F (Apr 21, 4:00 PM)100% (Apr 16, 12:30 AM)30.33 "Hg (Apr 16, 12:30 AM)
Low30 °F (Apr 28, 5:30 AM)38% (Apr 21, 6:30 PM)29.65 "Hg (Apr 16, 8:00 PM)
Average48 °F77%29.97 "Hg
* Reported Apr 14 9:00 AM — Apr 29 9:30 AM, Reinach, Weather by CustomWeather, © 2016

Note: Actual official high and low records may vary slightly from our data, if they occured in-between our weather recording intervals... More about our weather records

Advertising

Reinach Weather History for the Previous 24 Hours

Scroll right to see more
 ConditionsComfort  
Time TempWeatherWind HumidityBarometerVisibility
9:30 AM
Fri, Apr 29
48 °FPassing clouds.2 mph66%30.09 "HgN/A
9:00 AM46 °FPassing clouds.3 mph71%30.09 "HgN/A
8:30 AM43 °FSunny.3 mph81%30.09 "Hg10 mi
8:00 AM39 °FSunny.3 mph93%30.07 "Hg10 mi
7:30 AM36 °FSunny.1 mph93%30.07 "Hg10 mi
7:00 AM36 °FClear.No wind93%30.07 "Hg10 mi
6:30 AM36 °FClear.No wind93%30.07 "Hg10 mi
6:00 AM36 °FClear.No wind93%30.07 "Hg10 mi
5:30 AM36 °FClear.No wind93%30.07 "Hg10 mi
4:30 AM34 °FClear.1 mph100%30.04 "Hg6 mi
4:00 AM34 °FClear.2 mph93%30.04 "Hg10 mi
3:30 AM34 °FClear.No wind100%30.04 "Hg10 mi
3:00 AM34 °FClear.2 mph93%30.04 "Hg10 mi
2:30 AM36 °FClear.1 mph93%30.04 "Hg10 mi
2:00 AM36 °FClear.2 mph93%30.04 "Hg10 mi
1:00 AM37 °FClear.1 mph93%30.04 "Hg10 mi
12:30 AM37 °FClear.No wind93%30.04 "Hg10 mi
12:00 AM39 °FClear.2 mph93%30.04 "Hg10 mi
11:30 PM
Thu, Apr 28
39 °FClear.2 mph87%30.04 "Hg10 mi
11:00 PM39 °FClear.2 mph87%30.04 "Hg10 mi
10:30 PM37 °FClear.2 mph93%30.04 "Hg10 mi
10:00 PM39 °FClear.5 mph87%30.04 "Hg10 mi
9:30 PM39 °FSunny.5 mph81%30.04 "Hg10 mi
9:00 PM43 °FSunny.2 mph81%30.01 "Hg10 mi
8:30 PM46 °FPassing clouds.3 mph66%30.01 "HgN/A
8:00 PM48 °FScattered clouds.2 mph62%30.01 "HgN/A
7:30 PM50 °FPartly sunny.5 mph54%30.01 "HgN/A
7:00 PM50 °FBroken clouds.7 mph54%30.01 "HgN/A
6:30 PM50 °FBroken clouds.8 mph67%30.01 "HgN/A
6:00 PM48 °FSprinkles. Broken clouds.8 mph66%30.01 "HgN/A
5:30 PM48 °FBroken clouds.10 mph66%29.98 "HgN/A
5:00 PM52 °FBroken clouds.8 mph50%29.98 "HgN/A
4:30 PM52 °FBroken clouds.9 mph47%29.98 "HgN/A
4:00 PM52 °FScattered showers. Broken clouds.8 mph50%29.98 "HgN/A
3:30 PM54 °FScattered showers. Broken clouds.6 mph44%30.01 "HgN/A
3:00 PM50 °FScattered showers. Broken clouds.5 mph54%29.98 "HgN/A
2:30 PM50 °FScattered showers. Broken clouds.2 mph54%30.01 "HgN/A
2:00 PM50 °FScattered showers. Broken clouds.8 mph58%30.01 "HgN/A
1:30 PM48 °FScattered showers. Broken clouds.6 mph58%29.98 "HgN/A
1:00 PM48 °FScattered showers. Broken clouds.12 mph62%30.01 "HgN/A
12:30 PM50 °FScattered showers. Scattered clouds.10 mph58%29.98 "HgN/A
12:00 PM50 °FScattered showers. Scattered clouds.6 mph54%30.01 "HgN/A
11:30 AM50 °FScattered showers. Scattered clouds.6 mph54%30.01 "HgN/A
11:00 AM48 °FPassing clouds.3 mph54%30.01 "HgN/A
10:00 AM45 °FPassing clouds.3 mph61%30.01 "HgN/A
Weather by CustomWeather, © 2016

See weather overviewHow to use our weather pages